This is the latest recevied weather packets stored in our database for station/object TAPIOLA. If no packets are shown the sender has not sent any weather packets the latest 10 day(s).
| Time | Temp. | Humidity | Pressure | Rain* | Wind** | Luminosity | Snow |
|---|---|---|---|---|---|---|---|
| 1788349474 | 19.44° C | 53% | 1008.1 hPa | 0 mm | - | - | - |
| 1788347075 | 18.89° C | 61% | 1008.1 hPa | 0 mm | - | - | - |
| 1788344674 | 17.78° C | 60% | 1008.1 hPa | 0 mm | - | - | - |
| 1788341074 | 16.67° C | 66% | 1008.3 hPa | 0 mm | - | - | - |
| 1788339875 | 16.11° C | 71% | 1008.3 hPa | 0 mm | - | - | - |
| 1788338673 | 15.56° C | 72% | 1008.3 hPa | 0 mm | - | - | - |
| 1788337475 | 15° C | 76% | 1008.3 hPa | 0 mm | - | - | - |
| 1788336273 | 14.44° C | 78% | 1008.2 hPa | 0 mm | - | - | - |
| 1788335074 | 13.89° C | 81% | 1008.2 hPa | 0 mm | - | - | - |
| 1788333663 | 13.33° C | 84% | 1008.1 hPa | 0 mm | - | - | - |
| 1788332674 | 12.78° C | 84% | 1008 hPa | 0 mm | - | - | - |
| 1788331472 | 12.78° C | 88% | 1007.9 hPa | 0 mm | - | - | - |
| 1788330273 | 12.78° C | 88% | 1007.9 hPa | 0 mm | - | - | - |
| 1788329075 | 12.78° C | 91% | 1007.8 hPa | 0 mm | - | - | - |
| 1788327873 | 12.78° C | 91% | 1007.6 hPa | 0 mm | - | - | - |
| 1788326464 | 13.33° C | 95% | 1007.5 hPa | 0 mm | - | - | - |
| 1788325474 | 13.33° C | 98% | 1007.4 hPa | 0 mm | - | - | - |
| 1788324272 | 12.78° C | 100% | 1007.4 hPa | 0 mm | - | - | - |
| 1788321875 | 13.33° C | 100% | 1007.3 hPa | 0 mm | - | - | - |
| 1788299073 | 13.89° C | 100% | 1007.5 hPa | 0 mm | - | - | - |
| 1788294272 | 13.89° C | 99% | 1007.6 hPa | 0 mm | - | - | - |
| 1788293072 | 14.44° C | 99% | 1007.5 hPa | 0 mm | - | - | - |
| 1788290672 | 15° C | 98% | 1007.5 hPa | 0 mm | - | - | - |
| 1788288272 | 15° C | 98% | 1007.6 hPa | 0 mm | - | - | - |
| 1788287072 | 15.56° C | 98% | 1007.6 hPa | 0 mm | - | - | - |
* Rain latest hour (hover to see other rain measurements)
** Current wind speed in m/s (hover to see current wind gust speed)